Regional Weather Roundup
Issued by NWS Kansas City/Pleasant Hill, MO

Home | Current Version | Previous Version | Graphics & Text | Print | Product List | Glossary Off
Versions: 1 2 3 4 5 6 7 8 9 10 11 12 13 14 15 16 17 18 19 20 21 22 23 24 25 26 27 28 29 30 31 32 33 34 35 36 37 38 39 40 41 42 43 44 45 46 47 48 49 50

000
ASUS43 KEAX 310711
RWREAX

WEATHER ROUNDUP FOR EASTERN KANSAS AND NORTHWEST MISSOURI
NATIONAL WEATHER SERVICE KANSAS CITY/PLEASANT HILL MO
200 AM CDT THU JUL 31 2014

KSZ040-057-103>105-MOZ028-029-037-043-310800-
...KANSAS CITY METROPOLITAN AREA...

CITY           SKY/WX    TMP DP  RH WIND       PRES   REMARKS
K.C. INTL      PTCLDY    65  57  75 N3        30.10F
K.C. DOWNTOWN  CLEAR     67  61  81 CALM      30.09F
LEES SUMMIT    CLEAR     64  61  90 W3        30.10F
OLATHE - IXD   CLEAR     63  60  90 CALM      30.11S
OLATHE - OJC   CLEAR     64  60  87 CALM      30.09F
LAWRENCE       CLEAR     57  55  93 NW5       30.10F

$$

MOZ001>008-011>017-020>025-030>033-038>040-044>046-053-054-310800-
...NORTHERN AND CENTRAL MISSOURI...

CITY           SKY/WX    TMP DP  RH WIND       PRES   REMARKS
ST. JOSEPH     CLEAR     57  55  93 CALM      30.11S
MOSBY          PTSUNNY   59  59 100 CALM      30.10S
WARRENSBURG    PTCLDY    61  59  94 CALM      30.08F
WHITEMAN AFB   CLEAR     64  53  65 SW2       30.08F
CLINTON        FOG       61  61 100 CALM      30.09F VSB 1/4
SEDALIA        CLEAR     63  58  83 CALM      30.09F
WARSAW         NOT AVBL
MARSHALL       CLEAR     63  63 100 E3        30.10S
CHILLICOTHE      N/A     60  56  86 CALM      30.11S
KIRKSVILLE     CLEAR     56  55  97 CALM      30.10F

$$

MOZ041-047>049-056>058-063>065-088>090-097-310800-
...EASTERN AND SOUTHERN MISSOURI...

CITY           SKY/WX    TMP DP  RH WIND       PRES   REMARKS
ST. LOUIS INTL PTCLDY    72  60  66 NE3       30.08S
SPIRIT OF STL  CLEAR     63  60  90 CALM      30.07S
COLUMBIA       CLEAR     62  58  86 N5        30.09F
JEFFERSON CITY CLEAR     63  59  87 NW3       30.08F
HANNIBAL       CLEAR     63  57  82 CALM      30.09F
ROLLA          PTCLDY    58  57  97 CALM      30.08F
LEBANON        FOG       63  61  94 W3        30.11F VSB 1/4
OSAGE BEACH    MOCLDY    59  55  88 CALM      30.09F
SPRINGFIELD    CLOUDY    66  64  93 NE5       30.09F
BRANSON        CLOUDY    64  64 100 CALM      30.10F FOG
NEVADA         FOG       61  61 100 CALM      30.11F VSB 1/4
JOPLIN         MOCLDY    66  65  96 NE3       30.09F
WEST PLAINS    LGT RAIN  66  64  93 CALM      30.10S

$$

IAZ060-094-KSZ022-034>040-054-083-096-NEZ052-066-093-310800-
...KANSAS...SOUTHEAST NEBRASKA AND IOWA...

CITY           SKY/WX    TMP DP  RH WIND       PRES   REMARKS
TOPEKA         CLEAR     60  58  92 CALM      30.11S
MANHATTAN      PTCLDY    59  57  93 CALM      30.12F
EMPORIA        PTCLDY    60  60 100 NW6       30.11F FOG
CHANUTE        FOG       63  62  97 CALM      30.10F VSB 1/4
WICHITA        PTCLDY    63  61  93 N3        30.13S
OMAHA          PTCLDY    61  57  87 CALM      30.11F
LINCOLN        CLEAR     61  55  81 CALM      30.13F
FALLS CITY     CLEAR     60  56  86 CALM      30.10F
LAMONI         CLEAR     63  55  75 N3        30.10F
DES MOINES     CLEAR     65  58  78 W3        30.09S

$$



USA.gov is the U.S. government's official web portal to all federal, state and local government web resources and services.